Time,TemperatureF,DewpointF,PressureIn,WindDirection,WindDirectionDegrees,WindSpeedMPH,WindSpeedGustMPH,Humidity,HourlyPrecipIn,Conditions,Clouds,dailyrainin,SoftwareType,DateUTC
2013-02-22 00:03:00,40.4,33.8,30.05,East,84,0.0,0.0,77,0.00,,---,0.00,VWS V14.01,2013-02-22 08:03:00,
2013-02-22 00:08:00,40.2,33.9,30.05,East,84,0.0,0.0,78,0.00,,---,0.00,VWS V14.01,2013-02-22 08:08:00,
2013-02-22 00:13:00,40.1,33.8,30.05,East,84,0.0,0.0,78,0.00,,---,0.00,VWS V14.01,2013-02-22 08:13:00,
2013-02-22 00:18:00,40.1,33.8,30.05,East,84,0.0,0.0,78,0.00,,---,0.00,VWS V14.01,2013-02-22 08:18:00,
2013-02-22 00:23:00,40.0,33.7,30.05,ESE,106,0.0,0.0,78,0.00,,---,0.00,VWS V14.01,2013-02-22 08:23:00,
2013-02-22 00:28:00,40.0,33.7,30.05,SE,139,0.0,0.0,78,0.00,,---,0.00,VWS V14.01,2013-02-22 08:28:00,
2013-02-22 00:34:00,39.9,33.6,30.06,SE,139,0.0,0.0,78,0.00,,---,0.00,VWS V14.01,2013-02-22 08:34:00,
2013-02-22 00:39:00,39.9,33.6,30.05,SE,139,0.0,0.0,78,0.00,,---,0.00,VWS V14.01,2013-02-22 08:39:00,
2013-02-22 00:44:00,39.9,33.6,30.05,SE,139,0.0,0.0,78,0.00,,---,0.00,VWS V14.01,2013-02-22 08:44:00,
2013-02-22 00:49:00,39.8,33.5,30.06,SE,139,0.0,0.0,78,0.00,,---,0.00,VWS V14.01,2013-02-22 08:49:00,
2013-02-22 00:54:00,39.7,33.7,30.06,SE,139,0.0,0.0,79,0.00,,---,0.00,VWS V14.01,2013-02-22 08:54:00,
2013-02-22 00:59:00,39.6,33.6,30.06,SE,139,0.0,0.0,79,0.00,,---,0.00,VWS V14.01,2013-02-22 08:59:00,
2013-02-22 01:04:00,39.5,33.5,30.06,SE,139,0.0,0.0,79,0.00,,---,0.00,VWS V14.01,2013-02-22 09:04:00,
2013-02-22 01:09:00,39.4,33.4,30.06,ESE,109,0.0,0.0,79,0.00,,---,0.00,VWS V14.01,2013-02-22 09:09:00,
2013-02-22 01:14:00,39.3,33.3,30.06,East,101,0.0,0.0,79,0.00,,---,0.00,VWS V14.01,2013-02-22 09:14:00,
2013-02-22 01:19:00,39.5,33.2,30.07,ESE,121,0.0,0.0,78,0.00,,---,0.00,VWS V14.01,2013-02-22 09:19:00,
2013-02-22 01:24:00,39.5,33.5,30.07,ENE,65,2.0,0.0,79,0.00,,---,0.00,VWS V14.01,2013-02-22 09:24:00,
2013-02-22 01:29:00,39.4,33.4,30.07,NE,49,0.0,0.0,79,0.00,,---,0.00,VWS V14.01,2013-02-22 09:29:00,
2013-02-22 01:34:00,39.4,33.4,30.07,NE,49,0.0,0.0,79,0.00,,---,0.00,VWS V14.01,2013-02-22 09:34:00,
2013-02-22 01:39:00,39.3,33.3,30.07,NE,49,0.0,0.0,79,0.00,,---,0.00,VWS V14.01,2013-02-22 09:39:00,
2013-02-22 01:44:00,39.2,33.6,30.07,NE,49,0.0,0.0,80,0.00,,---,0.00,VWS V14.01,2013-02-22 09:44:00,
2013-02-22 01:49:00,39.1,33.5,30.07,NE,49,0.0,0.0,80,0.00,,---,0.00,VWS V14.01,2013-02-22 09:49:00,
2013-02-22 01:54:00,38.9,33.3,30.07,ENE,69,0.0,0.0,80,0.00,,---,0.00,VWS V14.01,2013-02-22 09:54:00,
2013-02-22 02:00:00,38.9,33.3,30.07,ENE,63,0.0,0.0,80,0.00,,---,0.00,VWS V14.01,2013-02-22 10:00:00,
2013-02-22 02:05:00,38.7,33.1,30.07,ENE,63,0.0,0.0,80,0.00,,---,0.00,VWS V14.01,2013-02-22 10:05:00,
2013-02-22 02:10:00,38.6,33.0,30.07,ENE,63,0.0,0.0,80,0.00,,---,0.00,VWS V14.01,2013-02-22 10:10:00,
2013-02-22 02:15:00,38.5,33.2,30.06,ENE,63,0.0,0.0,81,0.00,,---,0.00,VWS V14.01,2013-02-22 10:15:00,
2013-02-22 02:20:00,38.4,33.1,30.07,ENE,63,0.0,0.0,81,0.00,,---,0.00,VWS V14.01,2013-02-22 10:20:00,
2013-02-22 02:25:00,38.4,33.1,30.07,ENE,63,0.0,0.0,81,0.00,,---,0.00,VWS V14.01,2013-02-22 10:25:00,
2013-02-22 02:30:00,38.2,32.9,30.07,ENE,63,0.0,0.0,81,0.00,,---,0.00,VWS V14.01,2013-02-22 10:30:00,
2013-02-22 02:35:00,38.1,33.1,30.07,ENE,63,0.0,0.0,82,0.00,,---,0.00,VWS V14.01,2013-02-22 10:35:00,
2013-02-22 02:40:00,38.0,32.7,30.07,ENE,63,0.0,0.0,81,0.00,,---,0.00,VWS V14.01,2013-02-22 10:40:00,
2013-02-22 02:45:00,38.0,33.0,30.07,ENE,63,0.0,0.0,82,0.00,,---,0.00,VWS V14.01,2013-02-22 10:45:00,
2013-02-22 02:50:00,37.9,32.9,30.07,ENE,63,0.0,0.0,82,0.00,,---,0.00,VWS V14.01,2013-02-22 10:50:00,
2013-02-22 02:55:00,37.8,32.8,30.07,ENE,63,0.0,0.0,82,0.00,,---,0.00,VWS V14.01,2013-02-22 10:55:00,
2013-02-22 03:00:00,37.8,32.8,30.07,ENE,63,0.0,0.0,82,0.00,,---,0.00,VWS V14.01,2013-02-22 11:00:00,
2013-02-22 03:05:00,37.7,32.7,30.07,ENE,63,0.0,0.0,82,0.00,,---,0.00,VWS V14.01,2013-02-22 11:05:00,
2013-02-22 03:10:00,37.6,32.6,30.07,NE,46,0.0,0.0,82,0.00,,---,0.00,VWS V14.01,2013-02-22 11:10:00,
2013-02-22 03:16:00,37.5,32.8,30.07,NE,46,0.0,0.0,83,0.00,,---,0.00,VWS V14.01,2013-02-22 11:16:00,
2013-02-22 03:21:00,37.5,32.8,30.06,NE,46,0.0,0.0,83,0.00,,---,0.00,VWS V14.01,2013-02-22 11:21:00,
2013-02-22 03:26:00,37.5,32.8,30.06,NE,46,0.0,0.0,83,0.00,,---,0.00,VWS V14.01,2013-02-22 11:26:00,
2013-02-22 03:31:00,37.5,32.5,30.06,NE,46,0.0,0.0,82,0.00,,---,0.00,VWS V14.01,2013-02-22 11:31:00,
2013-02-22 03:36:00,37.4,32.4,30.06,NE,46,0.0,0.0,82,0.00,,---,0.00,VWS V14.01,2013-02-22 11:36:00,
2013-02-22 03:41:00,37.4,32.4,30.06,NE,46,0.0,0.0,82,0.00,,---,0.00,VWS V14.01,2013-02-22 11:41:00,
2013-02-22 03:46:00,37.3,32.3,30.06,NE,46,0.0,0.0,82,0.00,,---,0.00,VWS V14.01,2013-02-22 11:46:00,
2013-02-22 03:51:00,37.3,32.3,30.07,NE,46,0.0,0.0,82,0.00,,---,0.00,VWS V14.01,2013-02-22 11:51:00,
2013-02-22 03:56:00,37.3,32.3,30.07,NE,46,0.0,0.0,82,0.00,,---,0.00,VWS V14.01,2013-02-22 11:56:00,
2013-02-22 04:01:00,37.2,32.2,30.07,NE,46,0.0,0.0,82,0.00,,---,0.00,VWS V14.01,2013-02-22 12:01:00,
2013-02-22 04:06:00,37.1,32.1,30.07,NE,46,0.0,0.0,82,0.00,,---,0.00,VWS V14.01,2013-02-22 12:06:00,
2013-02-22 04:11:00,37.0,32.0,30.07,NE,46,0.0,0.0,82,0.00,,---,0.00,VWS V14.01,2013-02-22 12:11:00,
2013-02-22 04:16:00,36.9,31.9,30.07,NE,46,0.0,0.0,82,0.00,,---,0.00,VWS V14.01,2013-02-22 12:16:00,
2013-02-22 04:21:00,36.8,32.1,30.07,NE,46,0.0,0.0,83,0.00,,---,0.00,VWS V14.01,2013-02-22 12:21:00,
2013-02-22 04:26:00,36.7,32.0,30.08,NE,46,0.0,0.0,83,0.00,,---,0.00,VWS V14.01,2013-02-22 12:26:00,
2013-02-22 04:31:00,36.7,32.0,30.08,NE,46,0.0,0.0,83,0.00,,---,0.00,VWS V14.01,2013-02-22 12:31:00,
2013-02-22 04:37:00,36.8,32.1,30.08,NE,46,1.0,0.0,83,0.00,,---,0.00,VWS V14.01,2013-02-22 12:37:00,
2013-02-22 04:42:00,36.9,32.2,30.09,NE,46,0.0,0.0,83,0.00,,---,0.00,VWS V14.01,2013-02-22 12:42:00,
2013-02-22 04:47:00,36.9,32.2,30.09,NE,46,0.0,0.0,83,0.00,,---,0.00,VWS V14.01,2013-02-22 12:47:00,
2013-02-22 04:52:00,36.8,32.1,30.09,NE,46,0.0,0.0,83,0.00,,---,0.00,VWS V14.01,2013-02-22 12:52:00,
2013-02-22 04:57:00,36.7,32.0,30.09,NE,46,0.0,0.0,83,0.00,,---,0.00,VWS V14.01,2013-02-22 12:57:00,
2013-02-22 05:02:00,36.6,31.9,30.09,NE,46,0.0,0.0,83,0.00,,---,0.00,VWS V14.01,2013-02-22 13:02:00,
2013-02-22 05:07:00,36.6,31.9,30.09,NE,47,0.0,0.0,83,0.00,,---,0.00,VWS V14.01,2013-02-22 13:07:00,
2013-02-22 05:12:00,36.6,31.9,30.09,NE,46,0.0,0.0,83,0.00,,---,0.00,VWS V14.01,2013-02-22 13:12:00,
2013-02-22 05:17:00,36.5,31.8,30.09,NE,46,0.0,0.0,83,0.00,,---,0.00,VWS V14.01,2013-02-22 13:17:00,
2013-02-22 05:22:00,36.4,31.7,30.09,NE,46,0.0,0.0,83,0.00,,---,0.00,VWS V14.01,2013-02-22 13:22:00,
2013-02-22 05:27:00,36.4,31.7,30.10,East,85,0.0,0.0,83,0.00,,---,0.00,VWS V14.01,2013-02-22 13:27:00,
2013-02-22 05:32:00,36.4,31.7,30.09,East,85,0.0,0.0,83,0.00,,---,0.00,VWS V14.01,2013-02-22 13:32:00,
2013-02-22 05:37:00,36.2,31.5,30.09,South,175,0.0,0.0,83,0.00,,---,0.00,VWS V14.01,2013-02-22 13:37:00,
2013-02-22 05:43:00,36.3,31.6,30.09,South,175,0.0,0.0,83,0.00,,---,0.00,VWS V14.01,2013-02-22 13:43:00,
2013-02-22 05:48:00,36.2,31.5,30.10,South,175,0.0,0.0,83,0.00,,---,0.00,VWS V14.01,2013-02-22 13:48:00,
2013-02-22 05:53:00,36.1,31.5,30.10,ESE,107,0.0,0.0,83,0.00,,---,0.00,VWS V14.01,2013-02-22 13:53:00,
2013-02-22 05:58:00,36.1,31.5,30.10,ESE,107,0.0,0.0,83,0.00,,---,0.00,VWS V14.01,2013-02-22 13:58:00,
2013-02-22 06:03:00,36.0,31.4,30.10,ESE,107,0.0,0.0,83,0.00,,---,0.00,VWS V14.01,2013-02-22 14:03:00,
2013-02-22 06:08:00,35.9,31.2,30.10,ESE,107,0.0,0.0,83,0.00,,---,0.00,VWS V14.01,2013-02-22 14:08:00,
2013-02-22 06:13:00,35.9,31.2,30.11,ESE,107,0.0,0.0,83,0.00,,---,0.00,VWS V14.01,2013-02-22 14:13:00,
2013-02-22 06:18:00,35.8,31.1,30.11,East,93,0.0,0.0,83,0.00,,---,0.00,VWS V14.01,2013-02-22 14:18:00,
2013-02-22 06:23:00,35.9,31.2,30.11,East,93,0.0,0.0,83,0.00,,---,0.00,VWS V14.01,2013-02-22 14:23:00,
2013-02-22 06:28:00,36.1,31.5,30.11,ESE,111,0.0,0.0,83,0.00,,---,0.00,VWS V14.01,2013-02-22 14:28:00,
2013-02-22 06:33:00,36.2,31.2,30.10,NE,42,0.0,0.0,82,0.00,,---,0.00,VWS V14.01,2013-02-22 14:33:00,
2013-02-22 06:38:00,36.1,31.1,30.11,NE,42,0.0,0.0,82,0.00,,---,0.00,VWS V14.01,2013-02-22 14:38:00,
2013-02-22 06:44:00,36.0,31.4,30.11,NE,42,0.0,0.0,83,0.00,,---,0.00,VWS V14.01,2013-02-22 14:44:00,
2013-02-22 06:49:00,35.9,31.2,30.11,NE,42,0.0,0.0,83,0.00,,---,0.00,VWS V14.01,2013-02-22 14:49:00,
2013-02-22 06:54:00,35.9,31.2,30.11,ENE,65,0.0,0.0,83,0.00,,---,0.00,VWS V14.01,2013-02-22 14:54:00,
2013-02-22 06:59:00,35.8,31.1,30.11,ENE,65,1.0,0.0,83,0.00,,---,0.00,VWS V14.01,2013-02-22 14:59:00,
2013-02-22 07:04:00,35.8,31.1,30.12,ENE,65,0.0,0.0,83,0.00,,---,0.00,VWS V14.01,2013-02-22 15:04:00,
2013-02-22 07:09:00,35.8,31.1,30.12,ENE,66,0.0,0.0,83,0.00,,---,0.00,VWS V14.01,2013-02-22 15:09:00,
2013-02-22 07:14:00,35.7,31.4,30.12,ENE,65,0.0,0.0,84,0.00,,---,0.00,VWS V14.01,2013-02-22 15:14:00,
2013-02-22 07:19:00,35.7,31.4,30.12,ENE,69,0.0,0.0,84,0.00,,---,0.00,VWS V14.01,2013-02-22 15:19:00,
2013-02-22 07:24:00,35.7,31.4,30.12,ENE,69,0.0,0.0,84,0.00,,---,0.00,VWS V14.01,2013-02-22 15:24:00,
2013-02-22 07:29:00,35.8,31.5,30.12,ENE,69,0.0,0.0,84,0.00,,---,0.00,VWS V14.01,2013-02-22 15:29:00,
2013-02-22 07:34:00,36.0,31.6,30.12,ENE,69,0.0,0.0,84,0.00,,---,0.00,VWS V14.01,2013-02-22 15:34:00,
2013-02-22 07:39:00,36.2,31.8,30.13,ENE,69,0.0,0.0,84,0.00,,---,0.00,VWS V14.01,2013-02-22 15:39:00,
2013-02-22 07:44:00,36.3,31.9,30.13,ENE,69,0.0,0.0,84,0.00,,---,0.00,VWS V14.01,2013-02-22 15:44:00,
2013-02-22 07:49:00,36.4,32.0,30.13,ENE,69,0.0,0.0,84,0.00,,---,0.00,VWS V14.01,2013-02-22 15:49:00,
2013-02-22 07:54:00,36.5,32.1,30.13,ENE,69,0.0,0.0,84,0.00,,---,0.00,VWS V14.01,2013-02-22 15:54:00,
2013-02-22 07:59:00,36.6,31.9,30.13,ENE,69,0.0,0.0,83,0.00,,---,0.00,VWS V14.01,2013-02-22 15:59:00,
2013-02-22 08:04:00,36.7,32.3,30.14,ENE,69,0.0,0.0,84,0.00,,---,0.00,VWS V14.01,2013-02-22 16:04:00,
2013-02-22 08:09:00,37.0,32.3,30.13,ENE,69,0.0,0.0,83,0.00,,---,0.00,VWS V14.01,2013-02-22 16:09:00,
2013-02-22 08:15:00,37.4,32.7,30.13,ENE,69,0.0,0.0,83,0.00,,---,0.00,VWS V14.01,2013-02-22 16:15:00,
2013-02-22 08:20:00,37.9,32.9,30.13,NE,51,0.0,0.0,82,0.00,,---,0.00,VWS V14.01,2013-02-22 16:20:00,
2013-02-22 08:25:00,38.4,33.1,30.14,NE,51,0.0,0.0,81,0.00,,---,0.00,VWS V14.01,2013-02-22 16:25:00,
2013-02-22 08:30:00,39.1,33.8,30.13,NE,48,0.0,0.0,81,0.00,,---,0.00,VWS V14.01,2013-02-22 16:30:00,
2013-02-22 08:35:00,39.7,34.0,30.14,NE,48,0.0,0.0,80,0.00,,---,0.00,VWS V14.01,2013-02-22 16:35:00,
2013-02-22 08:40:00,40.5,34.5,30.14,NE,47,0.0,0.0,79,0.00,,---,0.00,VWS V14.01,2013-02-22 16:40:00,
2013-02-22 08:45:00,41.3,33.7,30.14,ENE,78,0.0,0.0,74,0.00,,---,0.00,VWS V14.01,2013-02-22 16:45:00,
2013-02-22 08:50:00,42.0,34.3,30.14,ENE,78,0.0,0.0,74,0.00,,---,0.00,VWS V14.01,2013-02-22 16:50:00,
2013-02-22 08:55:00,42.8,35.1,30.15,ENE,77,0.0,0.0,74,0.00,,---,0.00,VWS V14.01,2013-02-22 16:55:00,
2013-02-22 09:00:00,43.8,35.0,30.15,ENE,74,0.0,0.0,71,0.00,,---,0.00,VWS V14.01,2013-02-22 17:00:00,
2013-02-22 09:05:00,44.5,34.6,30.15,East,95,1.0,0.0,68,0.00,,---,0.00,VWS V14.01,2013-02-22 17:05:00,
2013-02-22 09:10:00,45.2,35.7,30.14,East,87,0.0,0.0,69,0.00,,---,0.00,VWS V14.01,2013-02-22 17:10:00,
2013-02-22 09:15:00,45.7,35.0,30.14,East,87,0.0,0.0,66,0.00,,---,0.00,VWS V14.01,2013-02-22 17:15:00,
2013-02-22 09:20:00,46.4,36.4,30.14,NNE,28,0.0,0.0,68,0.00,,---,0.00,VWS V14.01,2013-02-22 17:20:00,
2013-02-22 09:25:00,46.9,36.2,30.14,NNE,31,0.0,0.0,66,0.00,,---,0.00,VWS V14.01,2013-02-22 17:25:00,
2013-02-22 09:30:00,47.4,36.6,30.14,NW,323,0.0,0.0,66,0.00,,---,0.00,VWS V14.01,2013-02-22 17:30:00,
2013-02-22 09:35:00,48.1,37.7,30.14,WNW,292,0.0,0.0,67,0.00,,---,0.00,VWS V14.01,2013-02-22 17:35:00,
2013-02-22 09:41:00,48.7,37.1,30.14,NW,310,0.0,0.0,64,0.00,,---,0.00,VWS V14.01,2013-02-22 17:41:00,
2013-02-22 09:46:00,49.3,37.2,30.14,WNW,294,2.0,0.0,63,0.00,,---,0.00,VWS V14.01,2013-02-22 17:46:00,
2013-02-22 09:51:00,50.0,37.5,30.14,NNW,348,0.0,0.0,62,0.00,,---,0.00,VWS V14.01,2013-02-22 17:51:00,
2013-02-22 09:56:00,50.7,37.3,30.14,WNW,293,0.0,0.0,60,0.00,,---,0.00,VWS V14.01,2013-02-22 17:56:00,
2013-02-22 10:01:00,51.3,37.9,30.15,NNW,333,1.0,0.0,60,0.00,,---,0.00,VWS V14.01,2013-02-22 18:01:00,
2013-02-22 10:06:00,51.8,38.8,30.15,NW,324,0.0,0.0,61,0.00,,---,0.00,VWS V14.01,2013-02-22 18:06:00,
2013-02-22 10:11:00,51.9,38.0,30.15,West,269,1.0,0.0,59,0.00,,---,0.00,VWS V14.01,2013-02-22 18:11:00,
2013-02-22 10:16:00,52.2,38.3,30.15,WNW,298,3.0,0.0,59,0.00,,---,0.00,VWS V14.01,2013-02-22 18:16:00,
2013-02-22 10:21:00,52.3,38.4,30.15,ESE,115,1.0,0.0,59,0.00,,---,0.00,VWS V14.01,2013-02-22 18:21:00,
2013-02-22 10:26:00,52.4,38.9,30.15,West,271,2.0,0.0,60,0.00,,---,0.00,VWS V14.01,2013-02-22 18:26:00,
2013-02-22 10:31:00,52.5,39.5,30.15,WNW,302,2.0,0.0,61,0.00,,---,0.00,VWS V14.01,2013-02-22 18:31:00,
2013-02-22 10:36:00,52.7,39.2,30.14,NNW,347,1.0,0.0,60,0.00,,---,0.00,VWS V14.01,2013-02-22 18:36:00,
2013-02-22 10:41:00,53.0,39.5,30.14,SSE,166,0.0,0.0,60,0.00,,---,0.00,VWS V14.01,2013-02-22 18:41:00,
2013-02-22 10:46:00,52.9,39.4,30.14,WNW,286,1.0,0.0,60,0.00,,---,0.00,VWS V14.01,2013-02-22 18:46:00,
2013-02-22 10:51:00,52.9,39.4,30.14,SSE,167,1.0,0.0,60,0.00,,---,0.00,VWS V14.01,2013-02-22 18:51:00,
2013-02-22 10:56:00,53.0,39.1,30.14,NW,309,1.0,0.0,59,0.00,,---,0.00,VWS V14.01,2013-02-22 18:56:00,
2013-02-22 11:01:00,53.2,39.3,30.14,NE,55,2.0,0.0,59,0.00,,---,0.00,VWS V14.01,2013-02-22 19:01:00,
2013-02-22 11:06:00,53.5,40.0,30.14,West,264,0.0,0.0,60,0.00,,---,0.00,VWS V14.01,2013-02-22 19:06:00,
2013-02-22 11:11:00,53.7,40.2,30.14,NW,319,1.0,0.0,60,0.00,,---,0.00,VWS V14.01,2013-02-22 19:11:00,
2013-02-22 11:16:00,54.1,39.7,30.14,NNW,346,0.0,0.0,58,0.00,,---,0.00,VWS V14.01,2013-02-22 19:16:00,
2013-02-22 11:22:00,54.4,40.0,30.14,NNE,19,2.0,0.0,58,0.00,,---,0.00,VWS V14.01,2013-02-22 19:22:00,
2013-02-22 11:27:00,54.7,39.3,30.14,NW,311,1.0,0.0,56,0.00,,---,0.00,VWS V14.01,2013-02-22 19:27:00,
2013-02-22 11:32:00,55.0,39.2,30.14,NNW,333,0.0,0.0,55,0.00,,---,0.00,VWS V14.01,2013-02-22 19:32:00,
2013-02-22 11:37:00,55.3,38.5,30.14,NNW,331,1.0,0.0,53,0.00,,---,0.00,VWS V14.01,2013-02-22 19:37:00,
2013-02-22 11:42:00,55.5,38.7,30.14,WNW,284,0.0,0.0,53,0.00,,---,0.00,VWS V14.01,2013-02-22 19:42:00,
2013-02-22 11:47:00,55.7,38.4,30.14,North,360,0.0,0.0,52,0.00,,---,0.00,VWS V14.01,2013-02-22 19:47:00,
2013-02-22 11:52:00,56.3,37.9,30.14,West,271,0.0,0.0,50,0.00,,---,0.00,VWS V14.01,2013-02-22 19:52:00,
2013-02-22 11:57:00,56.5,38.6,30.14,NW,309,1.0,0.0,51,0.00,,---,0.00,VWS V14.01,2013-02-22 19:57:00,
2013-02-22 12:02:00,56.6,38.7,30.13,North,360,0.0,0.0,51,0.00,,---,0.00,VWS V14.01,2013-02-22 20:02:00,
2013-02-22 12:07:00,56.7,37.2,30.13,North,5,1.0,0.0,48,0.00,,---,0.00,VWS V14.01,2013-02-22 20:07:00,
2013-02-22 12:12:00,57.1,37.1,30.13,WNW,296,1.0,0.0,47,0.00,,---,0.00,VWS V14.01,2013-02-22 20:12:00,
2013-02-22 12:17:00,57.2,37.2,30.13,SW,215,2.0,0.0,47,0.00,,---,0.00,VWS V14.01,2013-02-22 20:17:00,
2013-02-22 12:22:00,56.9,36.9,30.13,NNW,338,1.0,0.0,47,0.00,,---,0.00,VWS V14.01,2013-02-22 20:22:00,
2013-02-22 12:27:00,56.8,38.4,30.13,SW,230,0.0,0.0,50,0.00,,---,0.00,VWS V14.01,2013-02-22 20:27:00,
2013-02-22 12:32:00,57.0,39.1,30.12,South,188,0.0,0.0,51,0.00,,---,0.00,VWS V14.01,2013-02-22 20:32:00,
2013-02-22 12:37:00,57.3,38.3,30.12,SSW,192,2.0,0.0,49,0.00,,---,0.00,VWS V14.01,2013-02-22 20:37:00,
2013-02-22 12:42:00,57.3,39.3,30.12,South,184,0.0,0.0,51,0.00,,---,0.00,VWS V14.01,2013-02-22 20:42:00,
2013-02-22 12:47:00,57.7,39.2,30.12,NW,311,1.0,0.0,50,0.00,,---,0.00,VWS V14.01,2013-02-22 20:47:00,
2013-02-22 12:52:00,58.1,38.5,30.12,West,272,3.0,0.0,48,0.00,,---,0.00,VWS V14.01,2013-02-22 20:52:00,
2013-02-22 12:57:00,58.5,38.4,30.11,SSW,204,1.0,0.0,47,0.00,,---,0.00,VWS V14.01,2013-02-22 20:57:00,
2013-02-22 13:03:00,58.2,38.6,30.11,NNW,332,1.0,0.0,48,0.00,,---,0.00,VWS V14.01,2013-02-22 21:03:00,
2013-02-22 13:08:00,58.5,38.9,30.10,SSE,165,0.0,0.0,48,0.00,,---,0.00,VWS V14.01,2013-02-22 21:08:00,
2013-02-22 13:13:00,59.0,39.9,30.10,SSE,151,2.0,0.0,49,0.00,,---,0.00,VWS V14.01,2013-02-22 21:13:00,
2013-02-22 13:18:00,59.3,39.1,30.10,WNW,300,2.0,0.0,47,0.00,,---,0.00,VWS V14.01,2013-02-22 21:18:00,
2013-02-22 13:23:00,60.2,39.4,30.09,NNW,327,0.0,0.0,46,0.00,,---,0.00,VWS V14.01,2013-02-22 21:23:00,
2013-02-22 13:28:00,60.4,39.5,30.10,SSW,213,1.0,0.0,46,0.00,,---,0.00,VWS V14.01,2013-02-22 21:28:00,
2013-02-22 13:33:00,60.0,38.0,30.10,North,5,0.0,0.0,44,0.00,,---,0.00,VWS V14.01,2013-02-22 21:33:00,
2013-02-22 13:38:00,59.3,38.0,30.10,SSE,158,1.0,0.0,45,0.00,,---,0.00,VWS V14.01,2013-02-22 21:38:00,
2013-02-22 13:43:00,58.6,37.9,30.09,SW,220,1.0,0.0,46,0.00,,---,0.00,VWS V14.01,2013-02-22 21:43:00,
2013-02-22 13:48:00,57.8,37.7,30.09,SSW,192,0.0,0.0,47,0.00,,---,0.00,VWS V14.01,2013-02-22 21:48:00,
2013-02-22 13:53:00,57.6,38.1,30.09,NNW,335,0.0,0.0,48,0.00,,---,0.00,VWS V14.01,2013-02-22 21:53:00,
2013-02-22 13:58:00,57.6,38.6,30.10,SSW,213,1.0,0.0,49,0.00,,---,0.00,VWS V14.01,2013-02-22 21:58:00,
2013-02-22 14:03:00,57.4,38.4,30.09,SSE,168,1.0,0.0,49,0.00,,---,0.00,VWS V14.01,2013-02-22 22:03:00,
2013-02-22 14:08:00,57.6,38.6,30.09,SW,227,2.0,0.0,49,0.00,,---,0.00,VWS V14.01,2013-02-22 22:08:00,
2013-02-22 14:13:00,57.7,38.2,30.09,NNW,344,2.0,0.0,48,0.00,,---,0.00,VWS V14.01,2013-02-22 22:13:00,
2013-02-22 14:18:00,58.1,39.1,30.09,NNW,327,1.0,0.0,49,0.00,,---,0.00,VWS V14.01,2013-02-22 22:18:00,
2013-02-22 14:23:00,58.6,39.0,30.09,West,263,2.0,0.0,48,0.00,,---,0.00,VWS V14.01,2013-02-22 22:23:00,
2013-02-22 14:29:00,58.7,39.1,30.09,NNW,336,0.0,0.0,48,0.00,,---,0.00,VWS V14.01,2013-02-22 22:29:00,
2013-02-22 14:34:00,59.0,38.3,30.09,South,186,0.0,0.0,46,0.00,,---,0.00,VWS V14.01,2013-02-22 22:34:00,
2013-02-22 14:39:00,59.7,38.9,30.09,NW,313,2.0,0.0,46,0.00,,---,0.00,VWS V14.01,2013-02-22 22:39:00,
2013-02-22 14:44:00,60.2,39.9,30.08,South,182,1.0,0.0,47,0.00,,---,0.00,VWS V14.01,2013-02-22 22:44:00,
2013-02-22 14:49:00,60.2,38.8,30.09,South,182,0.0,0.0,45,0.00,,---,0.00,VWS V14.01,2013-02-22 22:49:00,
2013-02-22 14:54:00,60.5,39.6,30.09,SSE,165,0.0,0.0,46,0.00,,---,0.00,VWS V14.01,2013-02-22 22:54:00,
2013-02-22 14:59:00,60.8,38.8,30.09,North,355,0.0,0.0,44,0.00,,---,0.00,VWS V14.01,2013-02-22 22:59:00,
2013-02-22 15:04:00,61.3,39.2,30.08,WNW,300,0.0,0.0,44,0.00,,---,0.00,VWS V14.01,2013-02-22 23:04:00,
2013-02-22 15:09:00,61.4,39.9,30.08,North,5,0.0,0.0,45,0.00,,---,0.00,VWS V14.01,2013-02-22 23:09:00,
2013-02-22 15:14:00,61.1,38.5,30.08,South,189,0.0,0.0,43,0.00,,---,0.00,VWS V14.01,2013-02-22 23:14:00,
2013-02-22 15:19:00,60.8,39.3,30.08,SSW,196,0.0,0.0,45,0.00,,---,0.00,VWS V14.01,2013-02-22 23:19:00,
2013-02-22 15:24:00,60.5,39.1,30.08,SSW,196,0.0,0.0,45,0.00,,---,0.00,VWS V14.01,2013-02-22 23:24:00,
2013-02-22 15:30:00,60.2,38.2,30.08,SW,219,0.0,0.0,44,0.00,,---,0.00,VWS V14.01,2013-02-22 23:30:00,
2013-02-22 15:35:00,59.8,39.5,30.08,SE,134,0.0,0.0,47,0.00,,---,0.00,VWS V14.01,2013-02-22 23:35:00,
2013-02-22 15:40:00,59.6,39.4,30.08,SW,217,0.0,0.0,47,0.00,,---,0.00,VWS V14.01,2013-02-22 23:40:00,
2013-02-22 15:45:00,59.3,38.5,30.07,WNW,296,0.0,0.0,46,0.00,,---,0.00,VWS V14.01,2013-02-22 23:45:00,
2013-02-22 15:50:00,59.1,37.8,30.08,WNW,299,1.0,0.0,45,0.00,,---,0.00,VWS V14.01,2013-02-22 23:50:00,
2013-02-22 15:55:00,59.1,37.8,30.08,NW,316,0.0,0.0,45,0.00,,---,0.00,VWS V14.01,2013-02-22 23:55:00,
2013-02-22 16:00:00,58.9,38.2,30.08,South,178,1.0,0.0,46,0.00,,---,0.00,VWS V14.01,2013-02-23 00:00:00,
2013-02-22 16:05:00,58.7,38.0,30.08,West,263,2.0,0.0,46,0.00,,---,0.00,VWS V14.01,2013-02-23 00:05:00,
2013-02-22 16:10:00,58.6,37.9,30.08,West,259,0.0,0.0,46,0.00,,---,0.00,VWS V14.01,2013-02-23 00:10:00,
2013-02-22 16:15:00,58.5,37.2,30.08,West,277,0.0,0.0,45,0.00,,---,0.00,VWS V14.01,2013-02-23 00:15:00,
2013-02-22 16:20:00,58.5,37.2,30.08,WNW,293,0.0,0.0,45,0.00,,---,0.00,VWS V14.01,2013-02-23 00:20:00,
2013-02-22 16:25:00,58.5,37.8,30.08,NNW,341,0.0,0.0,46,0.00,,---,0.00,VWS V14.01,2013-02-23 00:25:00,
2013-02-22 16:30:00,58.5,37.2,30.08,West,279,0.0,0.0,45,0.00,,---,0.00,VWS V14.01,2013-02-23 00:30:00,
2013-02-22 16:35:00,58.4,37.7,30.08,NW,304,0.0,0.0,46,0.00,,---,0.00,VWS V14.01,2013-02-23 00:35:00,
2013-02-22 16:40:00,58.3,37.6,30.08,West,280,1.0,0.0,46,0.00,,---,0.00,VWS V14.01,2013-02-23 00:40:00,
2013-02-22 16:45:00,58.1,38.0,30.08,WNW,290,0.0,0.0,47,0.00,,---,0.00,VWS V14.01,2013-02-23 00:45:00,
2013-02-22 16:50:00,57.8,38.3,30.08,WNW,290,0.0,0.0,48,0.00,,---,0.00,VWS V14.01,2013-02-23 00:50:00,
2013-02-22 16:55:00,57.6,38.6,30.08,NW,309,0.0,0.0,49,0.00,,---,0.00,VWS V14.01,2013-02-23 00:55:00,
2013-02-22 17:01:00,57.3,38.8,30.08,WNW,292,0.0,0.0,50,0.00,,---,0.00,VWS V14.01,2013-02-23 01:01:00,
2013-02-22 17:06:00,57.1,39.7,30.07,SW,220,0.0,0.0,52,0.00,,---,0.00,VWS V14.01,2013-02-23 01:06:00,
2013-02-22 17:11:00,56.7,39.3,30.07,West,269,0.0,0.0,52,0.00,,---,0.00,VWS V14.01,2013-02-23 01:11:00,
2013-02-22 17:16:00,56.3,39.4,30.07,WNW,290,0.0,0.0,53,0.00,,---,0.00,VWS V14.01,2013-02-23 01:16:00,
2013-02-22 17:21:00,56.0,40.1,30.07,WNW,292,0.0,0.0,55,0.00,,---,0.00,VWS V14.01,2013-02-23 01:21:00,
2013-02-22 17:26:00,55.7,39.8,30.06,WNW,296,0.0,0.0,55,0.00,,---,0.00,VWS V14.01,2013-02-23 01:26:00,
2013-02-22 17:31:00,55.3,39.9,30.07,WSW,240,0.0,0.0,56,0.00,,---,0.00,VWS V14.01,2013-02-23 01:31:00,
2013-02-22 17:36:00,55.0,39.6,30.07,SW,223,0.0,0.0,56,0.00,,---,0.00,VWS V14.01,2013-02-23 01:36:00,
2013-02-22 17:41:00,54.7,40.2,30.06,SW,223,0.0,0.0,58,0.00,,---,0.00,VWS V14.01,2013-02-23 01:41:00,
2013-02-22 17:46:00,54.2,39.3,30.07,SW,229,0.0,0.0,57,0.00,,---,0.00,VWS V14.01,2013-02-23 01:46:00,
2013-02-22 17:51:00,53.9,39.5,30.07,SW,229,0.0,0.0,58,0.00,,---,0.00,VWS V14.01,2013-02-23 01:51:00,
2013-02-22 17:56:00,53.5,39.1,30.07,SSE,166,0.0,0.0,58,0.00,,---,0.00,VWS V14.01,2013-02-23 01:56:00,
2013-02-22 18:01:00,53.2,39.7,30.07,South,190,0.0,0.0,60,0.00,,---,0.00,VWS V14.01,2013-02-23 02:01:00,
2013-02-22 18:06:00,52.9,39.0,30.07,South,188,0.0,0.0,59,0.00,,---,0.00,VWS V14.01,2013-02-23 02:06:00,
2013-02-22 18:11:00,52.7,38.3,30.07,SSW,207,0.0,0.0,58,0.00,,---,0.00,VWS V14.01,2013-02-23 02:11:00,
2013-02-22 18:16:00,52.6,38.7,30.07,SSW,207,0.0,0.0,59,0.00,,---,0.00,VWS V14.01,2013-02-23 02:16:00,
2013-02-22 18:21:00,52.4,38.9,30.07,SSW,207,0.0,0.0,60,0.00,,---,0.00,VWS V14.01,2013-02-23 02:21:00,
2013-02-22 18:26:00,52.3,38.8,30.07,SSE,147,0.0,0.0,60,0.00,,---,0.00,VWS V14.01,2013-02-23 02:26:00,
2013-02-22 18:32:00,52.1,38.7,30.07,South,189,0.0,0.0,60,0.00,,---,0.00,VWS V14.01,2013-02-23 02:32:00,
2013-02-22 18:37:00,51.9,38.5,30.06,South,189,0.0,0.0,60,0.00,,---,0.00,VWS V14.01,2013-02-23 02:37:00,
2013-02-22 18:42:00,51.8,38.4,30.07,South,181,0.0,0.0,60,0.00,,---,0.00,VWS V14.01,2013-02-23 02:42:00,
2013-02-22 18:47:00,51.6,38.2,30.07,South,183,0.0,0.0,60,0.00,,---,0.00,VWS V14.01,2013-02-23 02:47:00,
2013-02-22 18:52:00,51.5,38.1,30.07,South,183,0.0,0.0,60,0.00,,---,0.00,VWS V14.01,2013-02-23 02:52:00,
2013-02-22 18:57:00,51.3,37.9,30.07,South,182,0.0,0.0,60,0.00,,---,0.00,VWS V14.01,2013-02-23 02:57:00,
2013-02-22 19:02:00,51.2,37.8,30.08,South,183,0.0,0.0,60,0.00,,---,0.00,VWS V14.01,2013-02-23 03:02:00,
2013-02-22 19:07:00,51.1,38.1,30.07,South,183,0.0,0.0,61,0.00,,---,0.00,VWS V14.01,2013-02-23 03:07:00,
2013-02-22 19:12:00,51.1,37.7,30.08,South,183,0.0,0.0,60,0.00,,---,0.00,VWS V14.01,2013-02-23 03:12:00,
2013-02-22 19:17:00,51.1,37.7,30.08,South,183,0.0,0.0,60,0.00,,---,0.00,VWS V14.01,2013-02-23 03:17:00,
2013-02-22 19:22:00,51.1,37.7,30.08,South,183,0.0,0.0,60,0.00,,---,0.00,VWS V14.01,2013-02-23 03:22:00,
2013-02-22 19:27:00,51.1,37.3,30.08,South,183,0.0,0.0,59,0.00,,---,0.00,VWS V14.01,2013-02-23 03:27:00,
2013-02-22 19:32:00,51.2,38.2,30.08,South,183,0.0,0.0,61,0.00,,---,0.00,VWS V14.01,2013-02-23 03:32:00,
2013-02-22 19:37:00,51.1,38.1,30.09,South,183,0.0,0.0,61,0.00,,---,0.00,VWS V14.01,2013-02-23 03:37:00,
2013-02-22 19:43:00,51.1,37.3,30.09,South,183,0.0,0.0,59,0.00,,---,0.00,VWS V14.01,2013-02-23 03:43:00,
2013-02-22 19:48:00,51.3,37.9,30.08,South,183,0.0,0.0,60,0.00,,---,0.00,VWS V14.01,2013-02-23 03:48:00,
2013-02-22 19:53:00,51.4,37.6,30.08,WSW,240,0.0,0.0,59,0.00,,---,0.00,VWS V14.01,2013-02-23 03:53:00,
2013-02-22 19:58:00,51.5,38.1,30.08,ESE,111,0.0,0.0,60,0.00,,---,0.00,VWS V14.01,2013-02-23 03:58:00,
2013-02-22 20:03:00,51.5,38.1,30.08,SSW,192,0.0,0.0,60,0.00,,---,0.00,VWS V14.01,2013-02-23 04:03:00,
2013-02-22 20:08:00,51.4,38.4,30.08,SW,215,0.0,0.0,61,0.00,,---,0.00,VWS V14.01,2013-02-23 04:08:00,
2013-02-22 20:13:00,51.4,38.4,30.07,SW,236,0.0,0.0,61,0.00,,---,0.00,VWS V14.01,2013-02-23 04:13:00,
2013-02-22 20:18:00,51.3,38.3,30.08,SW,235,0.0,0.0,61,0.00,,---,0.00,VWS V14.01,2013-02-23 04:18:00,
2013-02-22 20:23:00,51.2,38.6,30.08,SW,235,0.0,0.0,62,0.00,,---,0.00,VWS V14.01,2013-02-23 04:23:00,
2013-02-22 20:28:00,51.0,38.0,30.07,WSW,238,1.0,0.0,61,0.00,,---,0.00,VWS V14.01,2013-02-23 04:28:00,
2013-02-22 20:33:00,51.1,38.5,30.06,South,178,0.0,0.0,62,0.00,,---,0.00,VWS V14.01,2013-02-23 04:33:00,
2013-02-22 20:38:00,51.0,38.0,30.05,SSE,157,0.0,0.0,61,0.00,,---,0.00,VWS V14.01,2013-02-23 04:38:00,
2013-02-22 20:43:00,51.0,38.0,30.06,SW,234,1.0,0.0,61,0.00,,---,0.00,VWS V14.01,2013-02-23 04:43:00,
2013-02-22 20:48:00,51.1,37.7,30.05,West,265,0.0,0.0,60,0.00,,---,0.00,VWS V14.01,2013-02-23 04:48:00,
2013-02-22 20:53:00,51.2,37.8,30.05,West,259,0.0,0.0,60,0.00,,---,0.00,VWS V14.01,2013-02-23 04:53:00,
2013-02-22 20:58:00,51.1,38.1,30.06,WSW,237,0.0,0.0,61,0.00,,---,0.00,VWS V14.01,2013-02-23 04:58:00,
2013-02-22 21:00:00,51.1,38.1,30.06,SW,236,1.0,0.0,61,0.00,,---,0.00,VWS V14.01,2013-02-23 05:00:00,
2013-02-22 21:01:00,51.1,38.1,30.06,SW,236,0.0,0.0,61,0.00,,---,0.00,VWS V14.01,2013-02-23 05:01:00,
2013-02-22 21:06:00,50.8,37.8,30.07,SSW,212,0.0,0.0,61,0.00,,---,0.00,VWS V14.01,2013-02-23 05:06:00,
2013-02-22 21:11:00,50.6,37.7,30.08,SSW,211,0.0,0.0,61,0.00,,---,0.00,VWS V14.01,2013-02-23 05:11:00,
2013-02-22 21:16:00,50.4,37.9,30.08,SSW,211,0.0,0.0,62,0.00,,---,0.00,VWS V14.01,2013-02-23 05:16:00,
2013-02-22 21:21:00,50.3,38.2,30.09,SSW,212,0.0,0.0,63,0.00,,---,0.00,VWS V14.01,2013-02-23 05:21:00,
2013-02-22 21:26:00,50.2,38.1,30.09,SSW,212,0.0,0.0,63,0.00,,---,0.00,VWS V14.01,2013-02-23 05:26:00,
2013-02-22 21:31:00,50.3,38.2,30.09,SSW,212,0.0,0.0,63,0.00,,---,0.00,VWS V14.01,2013-02-23 05:31:00,
2013-02-22 21:36:00,50.4,37.9,30.09,SSW,211,0.0,0.0,62,0.00,,---,0.00,VWS V14.01,2013-02-23 05:36:00,
2013-02-22 21:41:00,50.6,38.1,30.09,SSW,212,0.0,0.0,62,0.00,,---,0.00,VWS V14.01,2013-02-23 05:41:00,
2013-02-22 21:46:00,50.7,38.2,30.10,SSW,211,0.0,0.0,62,0.00,,---,0.00,VWS V14.01,2013-02-23 05:46:00,
2013-02-22 21:51:00,50.9,38.4,30.08,SSW,194,1.0,0.0,62,0.00,,---,0.00,VWS V14.01,2013-02-23 05:51:00,
2013-02-22 21:56:00,50.9,38.0,30.08,SSE,154,1.0,0.0,61,0.00,,---,0.00,VWS V14.01,2013-02-23 05:56:00,
2013-02-22 22:01:00,50.9,38.0,30.08,SSE,154,0.0,0.0,61,0.00,,---,0.00,VWS V14.01,2013-02-23 06:01:00,
2013-02-22 22:06:00,50.8,37.8,30.08,SSE,155,0.0,0.0,61,0.00,,---,0.00,VWS V14.01,2013-02-23 06:06:00,
2013-02-22 22:11:00,50.8,37.8,30.08,South,191,0.0,0.0,61,0.00,,---,0.00,VWS V14.01,2013-02-23 06:11:00,
2013-02-22 22:16:00,50.8,37.8,30.08,South,189,0.0,0.0,61,0.00,,---,0.00,VWS V14.01,2013-02-23 06:16:00,
2013-02-22 22:22:00,50.8,37.8,30.07,South,175,0.0,0.0,61,0.00,,---,0.00,VWS V14.01,2013-02-23 06:22:00,
2013-02-22 22:27:00,50.8,38.3,30.07,SE,140,0.0,0.0,62,0.00,,---,0.00,VWS V14.01,2013-02-23 06:27:00,
2013-02-22 22:32:00,50.6,38.1,30.08,SE,140,0.0,0.0,62,0.00,,---,0.00,VWS V14.01,2013-02-23 06:32:00,
2013-02-22 22:37:00,50.5,37.6,30.08,WNW,288,1.0,0.0,61,0.00,,---,0.00,VWS V14.01,2013-02-23 06:37:00,
2013-02-22 22:42:00,50.6,37.7,30.09,WSW,250,0.0,0.0,61,0.00,,---,0.00,VWS V14.01,2013-02-23 06:42:00,
2013-02-22 22:47:00,50.8,37.4,30.09,SW,234,0.0,0.0,60,0.00,,---,0.00,VWS V14.01,2013-02-23 06:47:00,
2013-02-22 22:52:00,51.0,38.0,30.09,South,179,0.0,0.0,61,0.00,,---,0.00,VWS V14.01,2013-02-23 06:52:00,
2013-02-22 22:57:00,51.2,37.8,30.10,NE,34,1.0,0.0,60,0.00,,---,0.00,VWS V14.01,2013-02-23 06:57:00,
2013-02-22 23:02:00,51.3,37.9,30.10,SSE,158,0.0,0.0,60,0.00,,---,0.00,VWS V14.01,2013-02-23 07:02:00,
2013-02-22 23:07:00,51.5,38.5,30.10,SE,129,0.0,0.0,61,0.00,,---,0.00,VWS V14.01,2013-02-23 07:07:00,
2013-02-22 23:12:00,51.5,38.5,30.10,SSE,155,0.0,0.0,61,0.00,,---,0.00,VWS V14.01,2013-02-23 07:12:00,
2013-02-22 23:17:00,51.5,38.5,30.10,NW,307,1.0,0.0,61,0.00,,---,0.00,VWS V14.01,2013-02-23 07:17:00,
2013-02-22 23:23:00,51.5,38.5,30.10,North,5,1.0,0.0,61,0.00,,---,0.00,VWS V14.01,2013-02-23 07:23:00,
2013-02-22 23:28:00,51.4,38.4,30.10,West,275,0.0,0.0,61,0.00,,---,0.00,VWS V14.01,2013-02-23 07:28:00,
2013-02-22 23:33:00,51.3,38.7,30.10,North,355,0.0,0.0,62,0.00,,---,0.00,VWS V14.01,2013-02-23 07:33:00,
2013-02-22 23:38:00,51.3,39.2,30.10,South,186,1.0,0.0,63,0.00,,---,0.00,VWS V14.01,2013-02-23 07:38:00,
2013-02-22 23:43:00,51.2,38.6,30.10,WNW,289,1.0,0.0,62,0.00,,---,0.00,VWS V14.01,2013-02-23 07:43:00,
2013-02-22 23:48:00,51.2,39.0,30.09,NNW,344,0.0,0.0,63,0.00,,---,0.00,VWS V14.01,2013-02-23 07:48:00,
2013-02-22 23:53:00,51.0,39.3,30.10,SSW,202,0.0,0.0,64,0.00,,---,0.00,VWS V14.01,2013-02-23 07:53:00,
2013-02-22 23:58:00,51.0,39.3,30.09,SW,218,1.0,0.0,64,0.00,,---,0.00,VWS V14.01,2013-02-23 07:58:00,